Theta_e
338 343 348 349 348 347 345 345 345 346 348 347 347 347 346 345 342 341 340 338 338 336 334 335 338 336 335 336 333 333 333 333 334 334 334 333 332 332 332 333 332 330 334
339 342 346 348 348 347 346 347 346 345 346 346 347 347 345 344 342 341 339 339 335 334 333 333 336 337 333 332 333 332 334 334 333 333 333 335 333 335 335 335 334 336 336
338 341 347 346 347 347 346 346 345 345 346 346 345 345 345 344 343 341 338 338 337 334 335 333 334 332 332 330 330 332 331 329 329 330 330 332 334 335 336 336 336 334 337
338 341 346 343 346 346 346 346 347 346 346 345 344 344 344 344 342 341 339 337 335 334 335 334 334 331 330 330 330 329 328 327 327 326 330 333 333 334 338 336 335 334 337
340 342 345 343 346 346 345 344 347 347 346 346 344 343 343 342 341 340 337 336 336 336 335 334 332 330 330 328 327 326 327 328 327 325 327 332 335 335 336 335 334 334 335
339 342 342 343 344 345 345 345 346 346 345 343 342 342 341 341 339 337 336 336 337 335 334 332 331 330 328 327 326 326 328 329 325 327 327 327 331 331 335 334 333 335 334
338 340 343 342 343 344 344 345 344 345 345 344 344 344 343 341 339 337 337 338 335 335 333 332 330 330 328 327 327 327 328 327 328 327 326 329 330 330 337 336 334 335 334
329 339 341 336 335 340 341 343 343 344 344 344 342 342 342 340 339 338 336 337 333 334 332 330 329 329 328 327 327 328 327 325 326 328 328 330 329 330 337 337 336 335 335
318 318 323 340 339 331 335 337 339 342 343 342 339 339 338 338 337 338 336 335 334 333 332 330 329 328 327 327 327 328 327 326 328 331 330 331 328 331 336 335 335 334 335
316 315 315 323 330 340 340 331 333 337 338 338 336 334 333 333 333 333 331 333 332 335 332 330 329 328 327 327 327 327 327 325 328 330 331 332 327 331 335 334 334 334 335
313 316 315 317 318 322 338 336 329 331 332 332 333 329 329 335 334 330 327 330 332 332 333 330 329 328 328 327 326 325 323 327 328 329 331 327 328 332 333 334 334 335 335
310 313 315 315 316 318 321 337 338 338 340 339 338 338 336 334 334 330 325 325 329 327 330 330 329 329 326 325 324 322 323 326 327 329 331 326 328 333 334 334 334 335 335
309 311 313 315 315 315 318 322 336 339 340 338 337 338 337 333 329 328 329 328 328 321 325 326 328 326 326 326 324 322 323 328 329 329 329 326 329 332 334 335 335 335 335
309 310 313 314 314 316 316 319 323 336 338 334 334 336 336 332 327 328 327 327 327 325 325 325 326 326 325 324 323 322 324 328 329 330 329 324 327 331 334 335 336 336 336
308 310 311 312 313 314 315 318 320 328 334 334 332 333 335 333 326 326 324 327 326 325 325 325 326 324 323 322 321 324 325 326 328 329 331 321 324 329 333 335 336 337 336
307 309 311 311 312 314 314 316 318 324 332 334 333 331 332 333 329 328 327 326 326 325 325 325 324 322 322 322 321 325 326 326 326 328 329 329 323 326 329 333 335 337 336
305 307 309 310 310 310 310 313 316 320 325 331 329 329 329 329 330 329 327 325 326 326 325 325 324 324 323 323 324 326 326 327 327 327 329 329 329 322 324 329 331 333 335
305 306 307 308 309 309 309 310 311 318 322 329 328 328 326 326 327 328 325 325 325 325 325 323 323 322 323 323 323 324 324 326 326 326 326 328 328 327 326 323 322 324 326
304 305 305 306 307 309 309 310 310 313 320 326 329 328 328 327 326 323 323 325 325 324 324 324 323 323 321 322 323 324 322 323 324 324 325 326 327 325 324 320 315 315 317
304 303 304 304 305 308 309 309 311 313 319 325 329 328 328 326 326 324 323 325 325 323 323 324 323 323 322 321 320 320 322 324 326 326 321 318 315 314 314 314 316 316 313
303 301 301 302 304 305 306 306 309 313 321 324 328 328 327 327 325 324 322 323 323 322 322 324 323 322 321 322 320 320 323 324 319 316 313 311 310 310 310 311 312 313 313
299 299 300 301 302 303 305 308 310 316 323 327 328 327 327 325 324 324 322 320 320 321 323 323 322 320 320 322 318 318 313 314 311 308 308 308 306 307 307 309 309 311 311
297 299 301 301 301 302 305 309 310 315 318 325 325 326 327 326 324 323 322 321 320 321 322 322 322 320 319 322 323 318 313 311 309 308 306 307 305 304 305 305 307 306 306
298 301 301 301 301 301 305 308 309 313 319 324 326 326 326 327 325 324 321 321 320 321 321 322 322 322 321 319 321 321 319 317 311 306 304 303 303 303 303 303 302 303 301
298 298 301 300 301 300 304 309 311 313 320 323 320 318 323 324 323 322 322 320 320 321 321 322 321 319 316 316 317 314 311 310 311 308 302 304 304 303 305 305 306 306 306
298 298 297 299 299 299 302 308 314 313 312 311 311 310 312 314 316 316 316 316 316 314 314 313 314 312 312 311 310 310 309 307 307 306 305 305 305 307 306 307 307 306 306
Wind_Speed
3 5 8 9 12 12 12 11 9 8 14 16 17 16 15 13 12 13 12 11 9 8 7 6 9 8 7 9 8 7 8 7 8 8 8 7 7 7 7 6 3 6 3
11 8 10 9 10 11 10 9 9 8 11 13 15 15 15 14 14 13 12 11 10 9 8 5 7 9 7 8 8 8 7 7 6 5 5 6 6 6 7 6 0 6 2
11 9 14 11 12 11 11 9 8 9 11 13 12 13 15 15 14 14 12 10 8 9 10 6 6 7 7 5 6 5 5 5 4 4 3 4 7 5 5 5 3 3 4
10 9 11 12 13 13 11 11 11 10 11 12 13 13 14 14 14 14 12 10 10 10 11 8 9 7 7 5 4 4 4 3 2 2 6 4 5 1 6 4 3 3 4
8 8 10 7 12 13 13 12 11 13 11 11 12 13 13 13 13 12 11 10 9 11 11 11 8 7 5 5 3 3 2 1 0 6 4 4 3 5 3 2 3 1 2
9 7 7 8 13 13 13 13 12 10 12 12 12 11 11 12 11 11 10 9 10 10 10 10 10 8 5 3 3 2 1 2 5 4 4 4 4 4 2 2 2 2 2
11 8 10 9 11 12 13 14 13 12 12 13 14 12 12 12 11 11 10 10 11 10 10 9 8 8 6 4 2 2 0 2 6 4 4 3 2 3 7 6 5 3 3
14 12 10 8 7 11 13 13 13 13 13 13 13 13 12 13 13 12 10 8 10 10 9 9 8 7 6 5 3 1 0 3 5 4 4 4 3 5 8 5 7 4 5
12 13 15 12 10 9 10 12 12 12 11 10 11 13 13 12 13 12 11 8 10 9 10 9 7 6 6 5 4 2 1 2 7 3 4 4 3 6 7 5 1 3 4
10 11 11 11 16 13 14 12 12 11 10 10 11 11 11 11 10 10 9 10 11 10 10 8 7 6 5 4 2 1 1 5 8 5 4 2 3 6 7 5 4 4 5
12 13 11 11 10 12 14 12 12 11 11 10 11 11 11 9 13 11 12 11 10 9 10 9 7 6 3 2 2 2 4 5 5 4 4 5 5 7 7 7 6 7 8
17 16 13 11 11 11 9 13 12 13 12 12 11 14 11 9 10 10 8 8 9 9 8 8 7 4 5 5 5 6 5 5 5 5 4 3 6 9 9 9 8 8 10
16 13 14 14 13 10 9 6 7 6 8 9 15 13 13 8 5 5 6 7 9 9 5 7 8 7 6 4 4 5 5 5 4 4 4 4 7 8 10 11 11 11 12
17 17 15 15 14 14 8 8 7 8 9 8 9 15 9 6 6 6 6 8 8 7 8 7 5 5 6 6 6 6 6 5 4 4 4 5 8 10 12 13 14 14 14
16 17 17 16 14 13 13 9 7 8 8 9 9 11 10 11 8 7 6 8 8 7 7 7 6 5 5 6 6 6 6 6 6 5 5 7 7 10 12 14 16 16 15
15 17 17 17 15 14 13 14 10 8 8 9 9 8 8 9 7 11 11 10 9 8 7 7 6 5 5 5 6 6 7 6 6 7 5 5 8 10 11 14 16 18 17
14 16 17 16 15 14 14 12 11 10 9 9 8 10 12 8 9 12 10 10 9 8 9 7 6 5 5 5 6 6 6 7 6 7 6 6 5 9 9 12 16 18 20
16 17 16 15 17 14 11 11 9 11 11 8 9 9 13 12 9 12 9 9 9 8 8 7 7 6 5 5 6 5 5 6 7 7 6 5 5 5 4 9 12 13 14
15 16 17 17 18 17 13 10 10 12 12 8 9 10 15 14 14 9 7 9 10 8 8 7 6 7 6 6 6 6 6 5 6 4 6 5 6 5 5 7 8 9 13
15 17 18 13 15 17 12 9 8 9 11 8 9 10 15 11 15 13 9 11 9 8 8 8 8 7 5 5 5 5 5 5 3 2 4 4 4 5 4 6 6 7 13
17 15 17 17 15 12 9 7 8 10 10 8 7 12 13 13 12 11 6 6 9 9 9 10 8 8 6 5 4 5 6 1 3 4 4 3 4 4 5 5 5 5 6
14 14 14 16 16 13 9 7 7 8 7 8 7 10 12 12 13 13 11 9 6 5 9 9 9 5 5 6 4 5 4 4 4 5 4 4 4 2 3 4 4 6 5
15 16 14 14 15 13 13 7 7 8 9 8 8 9 10 13 12 13 13 10 8 6 7 9 8 9 6 6 9 5 4 3 3 2 4 3 3 2 2 2 5 6 7
16 17 18 16 16 15 14 7 10 7 8 7 8 7 7 12 12 12 11 10 9 7 6 6 6 7 7 7 3 1 3 1 1 1 1 0 1 3 4 3 3 4 6
15 15 18 17 18 20 17 8 5 7 5 4 6 6 3 8 9 10 10 10 8 6 4 3 5 4 2 1 3 2 5 4 3 2 1 1 1 1 2 2 2 3 4
15 16 17 19 20 22 18 15 4 6 9 8 8 8 5 6 6 8 9 9 10 10 10 9 10 10 6 6 7 6 3 3 3 3 2 1 3 0 2 2 2 2 4
Wind_Direction
315 224 208 183 169 158 170 167 164 165 156 157 153 151 150 145 142 139 135 134 134 124 126 137 115 133 134 113 114 123 117 108 108 108 110 111 113 114 113 108 171 115 103
329 218 179 187 175 169 180 176 171 168 160 160 159 157 157 154 151 148 144 131 137 139 135 119 115 110 117 131 127 126 104 100 97 99 95 102 113 118 117 114 53 88 17
302 219 191 190 179 178 177 180 179 174 170 169 171 169 165 163 158 154 150 147 151 133 130 150 131 119 112 142 148 115 133 128 123 122 192 157 119 138 125 116 98 42 4
309 221 207 180 181 178 177 181 177 183 180 180 180 181 173 167 159 157 154 158 152 154 135 140 129 144 148 145 152 166 161 144 133 192 203 148 126 65 147 118 93 54 28
318 232 219 174 188 180 183 186 188 182 187 184 181 184 176 166 157 157 162 168 153 143 146 147 136 148 152 163 174 189 194 163 130 228 192 183 176 80 123 112 153 147 340
328 269 214 225 200 187 185 187 192 187 190 182 180 173 169 159 164 167 172 181 158 153 156 145 152 152 162 168 174 224 270 339 272 200 205 137 257 61 270 206 249 305 246
328 302 258 225 220 202 196 188 192 191 194 190 184 169 170 167 170 170 183 205 155 163 156 157 160 159 161 164 194 194 159 349 279 222 217 220 238 320 295 243 223 234 232
353 325 275 253 274 217 207 199 196 198 198 201 188 176 180 172 171 175 191 215 177 169 160 169 168 174 168 167 177 214 113 290 237 238 233 234 66 297 296 330 207 203 226
359 359 351 312 249 236 230 214 204 205 205 213 202 189 183 181 181 183 185 204 188 184 172 169 182 183 184 187 178 157 256 286 279 251 251 240 116 295 300 335 132 187 231
351 357 348 345 345 276 238 221 211 208 206 200 206 196 188 183 187 180 181 186 199 185 174 180 190 198 204 206 201 177 228 245 247 241 238 252 295 279 282 285 303 256 247
340 345 341 338 339 336 297 244 223 211 210 206 202 197 193 195 193 183 200 171 196 173 168 179 199 212 217 215 247 264 259 235 238 238 235 116 261 261 269 273 268 260 256
333 331 332 332 333 328 317 296 240 224 218 218 218 208 204 197 195 197 193 179 183 160 175 183 203 207 223 245 206 213 241 244 236 237 239 172 251 250 256 265 258 261 254
325 321 325 323 320 315 306 308 292 235 224 222 218 217 207 182 180 192 197 196 198 182 197 218 202 227 238 261 260 260 255 250 254 239 231 218 261 256 252 261 257 253 255
325 324 323 322 316 311 303 298 285 263 229 219 216 214 190 183 171 192 193 198 206 198 196 225 225 241 251 255 268 275 262 264 253 251 241 205 249 258 263 260 261 253 253
322 321 323 322 314 307 302 293 284 281 236 218 210 201 197 190 185 185 194 196 202 199 203 208 224 232 238 254 259 257 262 263 271 269 269 176 246 260 268 267 266 266 264
326 320 319 317 313 310 303 295 286 276 255 226 193 188 189 203 177 202 202 204 200 197 202 210 213 227 245 253 254 250 258 261 261 266 265 260 216 253 265 273 278 275 267
328 317 312 312 309 305 300 292 288 280 276 220 201 181 183 180 203 214 204 202 199 193 194 203 207 213 232 239 248 254 256 259 265 265 266 271 266 213 246 276 291 298 294
323 323 314 309 307 297 290 289 281 282 274 251 190 192 191 184 212 215 212 207 195 191 195 199 200 204 221 228 238 242 245 251 258 263 271 277 290 300 265 41 3 344 335
323 325 323 316 306 301 291 283 274 266 268 259 188 188 190 193 184 210 207 215 192 190 198 197 203 211 214 223 236 249 256 256 265 306 302 315 355 346 338 358 343 329 336
330 329 325 319 311 307 297 280 268 250 250 249 211 190 196 201 202 203 196 212 198 190 200 198 208 206 223 228 239 252 257 265 283 352 33 30 21 8 359 346 341 341 342
343 332 325 324 320 312 293 284 271 252 228 219 198 191 189 191 187 184 165 215 202 196 201 203 206 213 212 225 246 243 249 78 66 57 47 43 28 24 16 9 12 2 347
332 332 327 322 316 313 297 265 263 268 265 204 180 192 197 193 185 192 173 171 186 211 208 204 197 190 212 205 229 237 243 162 90 56 47 30 23 19 24 40 43 35 26
337 336 339 329 326 322 307 278 253 253 249 205 185 190 190 183 182 185 182 173 171 205 203 196 198 206 206 206 222 246 238 232 124 48 49 38 8 9 338 7 33 16 9
340 342 349 345 336 335 327 295 248 247 214 194 191 193 178 188 186 176 173 177 175 182 205 200 197 221 224 224 207 29 64 61 79 173 202 300 345 10 356 19 10 15 23
347 342 344 352 352 351 345 319 215 239 222 88 81 94 153 182 171 175 172 166 148 171 169 176 156 131 70 136 155 106 68 26 77 97 92 346 96 211 253 313 11 7 11
359 353 346 353 4 359 357 6 146 99 90 90 85 83 77 81 84 86 99 106 110 104 96 90 96 81 70 74 69 58 70 73 39 47 40 14 342 51 301 294 313 354 358